Location: Rotheul
(50.2849°N, 11.2349°E)
Time: 18:04:38
(UTC+02:00)

Envisat - Visible Passes

Search period start: 21 October 2019 00:00
Search period end: 30 October 2019 23:00
Orbit: 764 x 766 km, 98.1° (Epoch: 21 October)

Date Brightness Start Highest point End Pass type
(mag) Time Alt. Az. Time Alt. Az. Time Alt. Az.
21 Oct 3.0 18:55:35 10° SSE 19:00:38 72° ENE 19:05:44 10° N visible
21 Oct 5.8 20:36:44 10° SW 20:40:13 18° W 20:43:42 10° NW visible
22 Oct 6.1 07:00:41 10° NE 07:04:06 18° E 07:07:31 10° SE visible
22 Oct 4.6 19:58:26 10° SSW 20:03:05 36° W 20:07:46 10° NNW visible
23 Oct 3.3 19:21:05 10° S 19:26:09 72° WSW 19:31:15 10° NNW visible
23 Oct 6.2 21:04:48 10° W 21:06:06 11° W 21:07:24 10° WNW visible
24 Oct 3.1 18:44:25 10° SSE 18:49:24 59° ENE 18:54:25 10° N visible
24 Oct 5.5 20:24:53 10° SW 20:28:49 22° W 20:32:47 10° NW visible
25 Oct 6.2 06:49:56 10° NE 06:52:41 15° E 06:55:26 10° ESE visible
25 Oct 4.2 19:46:54 10° S 19:51:45 44° W 19:56:36 10° NNW visible
26 Oct 3.0 19:09:46 10° SSE 19:14:52 87° WSW 19:19:59 10° NNW visible
26 Oct 6.1 20:52:08 10° WSW 20:54:40 14° W 20:57:12 10° NW visible
27 Oct 5.8 06:14:27 10° NE 06:18:31 24° E 06:22:34 10° SE visible
27 Oct 3.2 17:33:19 10° SE 17:38:10 48° ENE 17:43:04 10° N visible
27 Oct 5.1 19:13:09 10° SSW 19:17:26 27° W 19:21:45 10° NW visible
28 Oct 6.4 05:39:31 10° ENE 05:41:15 12° E 05:42:59 10° ESE visible
28 Oct 3.8 18:35:27 10° S 18:40:25 54° W 18:45:25 10° NNW visible
29 Oct 2.9 17:58:32 10° SSE 18:03:36 78° ENE 18:08:42 10° NNW visible
29 Oct 5.8 19:39:59 10° SW 19:43:14 17° W 19:46:31 10° NW visible
30 Oct 6.0 06:03:30 10° NE 06:07:08 19° E 06:10:44 10° SE visible
30 Oct 3.4 17:22:15 10° SE 17:26:58 40° ENE 17:31:42 10° N visible
30 Oct 4.8 19:01:31 10° SSW 19:06:04 33° W 19:10:40 10° NNW visible
